Date,TemperatureHighF,TemperatureAvgF,TemperatureLowF,DewpointHighF,DewpointAvgF,DewpointLowF,HumidityHigh,HumidityAvg,HumidityLow,PressureMaxIn,PressureMinIn,WindSpeedMaxMPH,WindSpeedAvgMPH,GustSpeedMaxMPH,PrecipitationSumIn
2013-1-1,30,25,14,27,19,11,91,79,63,30.17,30.04,10,1,10,0.00
2013-1-2,22,14,3,16,9,0,93,82,71,30.27,30.14,8,1,8,0.00
2013-1-3,28,22,11,24,16,5,86,77,69,30.27,30.17,14,2,14,0.00
2013-1-4,27,21,14,21,16,10,89,81,70,30.28,30.20,14,4,19,0.00
2013-1-5,35,27,16,30,23,14,93,84,64,30.32,30.08,14,2,14,0.02
2013-1-6,35,32,26,32,28,22,88,85,78,30.32,29.96,17,3,19,0.04
2013-1-7,36,29,20,27,24,18,93,82,68,30.43,30.19,17,3,19,0.00
2013-1-8,42,32,24,29,25,20,89,77,58,30.29,30.18,13,2,13,0.03
2013-1-9,45,38,28,34,32,24,92,76,65,30.51,30.11,16,3,17,0.00
2013-1-10,39,31,20,34,27,19,95,86,70,30.54,30.10,15,1,15,0.21
2013-1-11,58,48,36,53,45,34,97,90,78,30.11,29.78,15,3,16,0.51
2013-1-12,60,53,49,53,49,45,97,86,77,29.94,29.74,15,3,15,0.39
2013-1-13,51,37,25,50,36,22,97,94,87,30.14,29.72,17,4,17,0.74
2013-1-14,25,21,14,22,17,12,93,84,77,30.48,30.14,17,2,17,0.00
2013-1-15,29,21,10,22,17,8,93,85,70,30.46,30.16,7,0,7,0.00
2013-1-16,36,28,19,28,22,18,94,79,54,30.16,29.91,17,3,18,0.00
2013-1-17,38,30,18,29,23,13,94,75,55,30.38,30.04,19,3,20,0.00
2013-1-18,38,29,19,25,19,13,80,68,53,30.47,30.06,22,4,27,0.00
2013-1-19,49,42,36,35,31,25,78,65,55,30.06,29.75,24,6,25,0.00
2013-1-20,42,23,15,34,14,9,78,68,49,30.24,29.75,25,5,25,0.00
2013-1-21,18,14,7,11,4,-4,77,65,51,30.23,30.08,20,4,26,0.00
2013-1-22,13,8,2,0,-3,-4,74,63,50,30.39,30.22,15,3,16,0.00
2013-1-23,18,13,6,15,5,-2,88,69,53,30.37,30.13,13,3,16,0.00
2013-1-24,22,14,2,15,5,-2,88,69,49,30.65,30.17,26,2,26,0.00
2013-1-25,23,20,17,20,15,8,88,78,65,30.51,30.04,10,2,11,0.00
2013-1-26,29,24,19,21,18,14,90,78,61,30.47,30.09,10,2,11,0.00
2013-1-27,33,26,17,31,20,14,93,81,71,30.47,30.10,13,2,13,0.09
2013-1-28,49,44,33,48,43,31,98,96,93,30.11,29.92,19,3,20,0.23
2013-1-29,61,55,45,57,53,45,99,94,86,29.97,29.38,24,5,24,0.19
2013-1-30,64,48,29,59,45,25,98,91,82,29.43,29.17,26,5,27,0.43
2013-1-31,29,20,11,26,14,5,87,78,69,30.03,29.42,18,6,26,0.00
2013-2-1,13,10,4,7,3,-1,79,74,68,30.38,30.03,19,4,20,0.00
2013-2-2,25,19,13,21,15,7,89,85,77,30.29,29.99,13,2,14,0.00
2013-2-3,22,17,13,15,12,10,90,82,72,30.09,29.95,15,2,15,0.00
2013-2-4,26,21,14,22,18,11,91,88,82,30.10,29.86,7,1,7,0.00
2013-2-5,31,23,8,27,20,6,93,86,68,30.03,29.84,12,2,12,0.00
2013-2-6,35,28,21,26,20,17,89,72,56,30.29,30.02,11,2,11,0.10
2013-2-7,41,32,24,32,26,19,94,77,64,30.25,29.79,9,1,9,0.12
2013-2-8,33,30,22,32,26,19,95,84,69,30.36,29.78,21,5,22,0.02
2013-2-9,34,24,14,24,19,12,94,81,63,30.46,30.25,13,1,13,0.00
2013-2-10,48,36,26,46,31,22,94,83,67,30.25,29.67,17,2,19,0.13
2013-2-11,49,38,31,46,31,23,93,76,68,29.98,29.60,31,7,31,0.00
2013-2-12,37,31,28,28,24,22,81,75,67,30.11,29.95,14,3,17,0.00
2013-2-13,43,32,22,30,26,20,91,77,60,29.95,29.75,10,1,10,0.00
2013-2-14,42,36,32,36,31,23,90,80,68,29.95,29.72,23,4,23,0.00
2013-2-15,32,28,20,25,21,14,84,74,55,30.17,29.94,15,3,16,0.00
2013-2-16,24,20,12,19,14,4,88,77,55,30.15,30.06,17,2,17,0.00
2013-2-17,29,19,10,14,11,6,92,71,45,30.26,30.14,11,2,11,0.00
2013-2-18,54,37,20,42,28,13,87,69,55,30.21,29.56,31,4,31,0.12
2013-2-19,45,24,15,42,19,8,91,81,72,30.08,29.48,29,7,31,0.03
2013-2-20,23,19,14,17,13,9,81,78,74,30.33,30.08,17,5,17,0.00
2013-2-21,27,23,20,20,17,14,80,76,69,30.40,30.17,13,3,15,0.00
2013-2-22,34,28,21,33,26,16,95,90,79,30.18,29.89,20,3,20,0.00
2013-2-23,31,28,26,27,22,19,85,78,69,29.98,29.92,17,3,17,0.00
2013-2-24,37,28,21,26,22,19,92,76,61,30.18,29.96,9,2,11,0.06
2013-2-25,42,30,17,29,23,15,95,79,60,30.23,30.03,11,1,12,0.06
2013-2-26,34,32,30,33,29,24,96,87,77,30.04,29.44,19,3,22,0.46
2013-2-27,35,33,31,33,31,29,96,94,91,29.62,29.44,14,3,15,0.24
2013-2-28,38,34,31,32,31,30,96,89,79,29.96,29.60,13,3,14,0.30
2013-3-1,32,29,25,30,24,19,93,80,71,30.13,29.96,15,4,15,0.00
2013-3-2,30,26,24,20,19,17,82,73,63,30.12,30.07,16,4,16,0.00
2013-3-3,32,26,18,19,17,13,86,71,56,30.11,30.05,19,3,19,0.00
2013-3-4,37,26,12,24,18,10,93,73,42,30.18,30.07,7,1,7,0.01
2013-3-5,32,30,27,28,25,23,95,84,73,30.10,29.72,20,3,21,0.00
2013-3-6,33,30,25,28,26,23,95,84,74,30.26,29.79,19,5,21,0.07
2013-3-7,39,34,30,30,27,22,91,76,53,30.41,30.24,11,2,11,0.01
2013-3-8,43,30,16,26,21,14,94,73,45,30.52,30.41,7,1,7,0.00
2013-3-9,44,35,22,35,28,19,93,78,61,30.42,29.98,14,2,14,0.00
2013-3-10,62,50,38,45,38,33,82,66,48,29.99,29.75,16,2,18,0.02
2013-3-11,57,46,35,49,42,31,96,85,54,29.75,29.52,23,4,23,0.42
2013-3-12,35,32,30,31,28,25,92,82,68,29.97,29.75,23,4,23,0.00
2013-3-13,31,27,0,28,21,0,91,77,64,30.30,29.96,20,4,20,0.00
2013-3-14,42,30,20,25,20,15,85,67,42,30.34,30.14,13,2,13,0.00
2013-3-15,46,38,30,40,33,25,95,85,69,30.15,29.79,14,2,14,0.15
2013-3-16,40,34,31,39,32,25,96,91,78,30.08,29.64,13,3,15,0.01
2013-3-17,35,30,27,26,22,19,83,73,58,30.23,30.07,17,3,17,0.00
2013-3-18,36,31,27,34,29,21,96,90,79,30.10,29.56,19,3,19,0.12
2013-3-19,35,28,22,29,18,14,82,65,49,30.04,29.74,29,6,29,0.00
2013-3-20,30,25,18,18,14,9,82,62,50,30.04,29.97,17,4,18,0.00
2013-3-21,34,23,16,22,16,12,88,75,52,30.03,29.96,16,3,17,0.00
2013-3-22,41,29,17,22,18,14,90,66,39,30.07,29.99,17,2,17,0.00
2013-3-23,43,31,20,27,22,16,92,72,48,30.12,30.00,13,1,13,0.00
2013-3-24,36,31,26,27,25,22,93,78,61,30.02,29.57,26,4,26,0.00
2013-3-25,37,32,28,30,28,26,95,86,68,29.96,29.53,22,7,22,0.08
2013-3-26,40,35,31,31,28,27,86,78,60,30.20,29.96,15,3,15,0.00
2013-3-27,43,36,30,32,28,21,89,72,51,30.29,30.19,17,2,17,0.00
2013-3-28,51,38,26,29,24,20,79,59,37,30.33,30.26,14,2,14,0.00
2013-3-29,52,38,22,30,24,20,95,63,33,30.32,30.22,17,2,17,0.00
2013-3-30,55,40,23,34,27,20,93,63,38,30.25,29.93,13,1,14,0.00
2013-3-31,60,48,39,45,37,29,92,67,38,29.93,29.66,19,3,19,0.00
2013-4-1,40,34,24,29,20,12,78,55,35,30.15,29.77,18,4,18,0.00
2013-4-2,43,30,18,22,15,7,89,57,26,30.30,30.14,18,2,18,0.00
2013-4-3,46,32,16,24,14,7,91,54,21,30.45,30.30,16,2,18,0.00
2013-4-4,57,40,20,23,19,14,87,48,21,30.36,29.98,11,1,11,0.00
2013-4-5,53,42,32,33,23,12,71,50,20,30.19,29.95,18,3,18,0.00
2013-4-6,61,47,32,38,29,22,71,51,34,30.19,29.76,21,5,24,0.00
2013-4-7,64,56,44,46,42,35,82,60,43,29.97,29.67,20,4,21,0.04
2013-4-8,73,54,41,58,44,34,95,72,47,29.97,29.73,23,3,23,0.15
2013-4-9,80,61,47,60,51,43,89,70,47,30.02,29.81,21,3,21,0.00
2013-4-10,68,51,44,60,49,43,96,91,75,29.89,29.73,18,2,19,0.69
2013-4-11,44,41,39,43,40,38,97,96,94,29.96,29.57,23,3,23,0.70
2013-4-12,43,40,38,40,36,31,97,87,72,29.85,29.56,17,3,24,0.17
2013-4-13,42,39,36,35,32,29,92,78,61,30.00,29.84,19,3,21,0.01
2013-4-14,60,46,35,48,39,32,91,78,64,30.08,29.86,15,2,15,0.00
2013-4-15,67,57,41,56,50,39,94,77,65,29.93,29.84,19,3,22,0.00
2013-4-16,62,52,47,54,45,37,96,79,58,30.22,29.85,15,3,17,0.65
2013-4-17,56,50,44,47,41,38,88,72,66,30.25,29.94,24,3,24,0.14
2013-4-18,76,58,44,66,55,40,97,89,68,29.94,29.53,27,4,28,2.33
2013-4-19,59,42,37,58,37,30,97,82,71,29.85,29.43,27,6,28,1.23
2013-4-20,44,37,29,31,25,18,87,63,39,30.45,29.85,21,4,22,0.00
2013-4-21,52,38,23,35,26,18,89,66,43,30.59,30.43,15,2,15,0.00
2013-4-22,66,48,28,38,33,26,94,60,31,30.43,30.13,12,2,12,0.00
2013-4-23,70,54,40,56,46,36,96,75,45,30.14,29.77,19,3,19,0.99
2013-4-24,48,40,35,46,35,25,95,84,50,30.18,29.75,17,5,17,0.40
2013-4-25,52,42,35,39,33,28,87,70,41,30.37,30.15,20,3,20,0.00
2013-4-26,62,47,29,40,34,28,97,66,40,30.45,30.33,14,2,14,0.00
2013-4-27,69,55,35,46,39,34,96,59,31,30.35,30.04,16,2,18,0.00
2013-4-28,60,56,51,58,52,46,96,89,63,30.04,29.79,7,0,7,0.53
2013-4-29,70,60,54,58,54,52,97,82,56,29.94,29.84,11,2,11,0.00
2013-4-30,78,66,53,63,56,50,91,72,57,30.00,29.90,18,3,18,0.00
2013-5-1,83,69,50,60,56,49,97,65,41,30.15,30.00,13,1,13,0.00
2013-5-2,79,68,56,59,55,53,93,66,44,30.17,30.06,13,2,16,0.00
2013-5-3,78,69,59,61,54,46,85,62,36,30.06,29.93,16,2,16,0.00
2013-5-4,73,64,55,52,46,40,73,52,32,30.01,29.94,15,2,15,0.00
2013-5-5,71,61,48,51,46,40,84,58,42,30.01,29.94,13,1,14,0.00
2013-5-6,74,64,50,54,48,41,76,58,44,30.00,29.91,10,1,10,0.00
2013-5-7,74,63,49,57,52,46,92,67,49,30.01,29.93,16,1,16,0.00
2013-5-8,79,64,49,56,52,48,97,69,38,29.99,29.92,15,1,15,0.00
2013-5-9,81,65,49,60,53,47,98,70,33,29.96,29.88,15,1,17,0.08
2013-5-10,69,61,47,61,56,44,96,85,68,29.88,29.74,18,3,18,0.22
2013-5-11,55,48,40,50,43,34,93,84,68,29.97,29.80,23,3,23,0.07
2013-5-12,50,42,34,34,32,28,89,67,44,30.13,29.97,18,3,18,0.00
2013-5-13,60,45,31,38,31,24,96,63,28,30.19,30.10,13,2,14,0.00
2013-5-14,85,65,43,61,46,31,79,50,32,30.10,29.68,18,3,19,0.00
2013-5-15,85,75,62,61,56,50,71,53,31,29.77,29.64,17,4,19,0.01
2013-5-16,83,68,50,56,48,38,96,56,24,29.94,29.76,10,1,10,0.00
2013-5-17,82,66,51,58,48,41,79,55,38,30.06,29.94,12,1,12,0.00
2013-5-18,81,67,52,62,52,40,76,59,48,30.08,29.96,8,1,8,0.00
2013-5-19,88,72,54,66,58,48,84,63,43,29.98,29.82,11,1,11,0.00
2013-5-20,88,77,68,71,67,63,90,71,51,29.87,29.77,18,3,18,0.00
2013-5-21,86,76,67,67,63,60,88,65,42,29.79,29.67,17,4,18,0.00
2013-5-22,78,70,63,66,63,60,91,78,56,29.72,29.61,20,3,20,0.28
2013-5-23,63,58,50,60,54,46,94,87,78,30.14,29.70,20,4,20,0.14
2013-5-24,63,51,40,46,40,35,91,69,37,30.34,30.14,18,4,18,0.00
2013-5-25,68,54,39,47,42,38,97,68,39,30.38,30.23,8,1,13,0.00
2013-5-26,72,57,40,45,41,37,94,59,31,30.32,30.17,10,1,10,0.00
2013-5-27,60,55,50,56,49,37,96,82,43,30.20,29.91,14,1,14,0.72
2013-5-28,80,70,57,70,65,56,98,83,67,29.93,29.81,18,3,19,0.36
2013-5-29,85,76,71,69,65,61,83,67,51,29.96,29.84,16,3,18,0.00
2013-5-30,88,77,68,71,66,61,85,69,51,30.02,29.89,20,4,20,0.00
2013-5-31,76,72,62,69,66,61,96,82,73,29.95,29.82,18,3,21,1.73
2013-6-1,76,68,62,67,64,61,98,86,69,29.87,29.69,17,2,17,1.42
2013-6-2,69,63,48,64,57,44,92,81,69,29.98,29.68,17,3,17,0.00
2013-6-3,68,57,47,48,44,39,94,65,39,30.08,29.97,13,2,13,0.00
2013-6-4,75,60,43,53,48,42,98,69,40,30.17,30.08,10,1,12,0.00
2013-6-5,77,65,52,58,50,39,79,59,42,30.11,29.90,12,1,12,0.00
2013-6-6,76,64,56,60,52,45,79,65,51,29.92,29.78,10,2,10,0.00
2013-6-7,72,62,51,57,54,49,95,75,54,29.89,29.82,11,2,13,0.00
2013-6-8,78,63,46,59,53,46,98,73,41,30.00,29.89,8,1,8,0.00
2013-6-9,83,70,59,68,60,55,95,72,44,30.03,29.84,12,1,12,0.04
2013-6-10,79,69,65,68,64,61,97,86,58,29.84,29.70,12,2,13,0.49
2013-6-11,84,72,63,70,64,61,95,79,54,29.91,29.78,11,2,13,0.00
2013-6-12,89,74,63,76,69,62,98,84,64,29.87,29.57,26,1,26,2.86
2013-6-13,77,68,60,65,60,54,98,76,46,29.92,29.46,20,4,22,0.14
2013-6-14,80,67,56,62,57,54,96,73,43,30.06,29.92,13,2,13,0.00
2013-6-15,80,65,56,66,61,55,98,88,54,30.08,29.88,12,1,12,0.09
2013-6-16,81,72,64,70,66,62,97,81,63,29.90,29.84,11,2,15,0.04
2013-6-17,86,75,64,72,64,56,98,74,37,29.91,29.83,8,1,10,0.00
2013-6-18,77,68,60,64,60,48,96,75,54,30.03,29.82,9,2,13,0.00
2013-6-19,79,64,48,61,52,46,94,67,38,30.13,30.02,6,1,10,0.00
2013-6-20,85,70,51,69,60,49,97,73,49,30.18,30.10,7,1,7,0.00
2013-6-21,87,76,60,65,62,58,97,64,39,30.17,29.97,12,2,15,0.00
2013-6-22,90,78,66,76,68,63,92,74,55,30.07,29.95,11,2,16,0.00
2013-6-23,89,77,65,73,68,63,97,76,49,30.06,29.95,13,2,23,0.00
2013-6-24,87,76,67,72,68,63,97,77,53,30.05,29.88,11,2,23,0.03
2013-6-25,89,77,67,78,70,64,97,79,53,29.95,29.78,14,2,21,0.37
2013-6-26,86,72,67,76,69,66,98,90,63,29.88,29.69,16,2,19,0.44
2013-6-27,85,74,67,74,69,66,98,86,62,29.73,29.61,15,2,24,0.84
2013-6-28,81,71,63,69,65,57,98,81,56,29.62,29.52,14,2,23,0.45
2013-6-29,74,67,60,67,63,59,98,87,69,29.69,29.52,11,1,11,0.22
2013-6-30,77,68,62,65,62,60,96,82,61,29.89,29.68,10,2,15,0.28
2013-7-1,70,65,61,64,58,54,95,79,69,30.00,29.88,14,3,18,0.33
2013-7-2,73,65,59,68,62,56,96,90,80,30.01,29.96,8,2,10,0.17
2013-7-3,82,72,64,69,65,63,98,81,58,30.06,29.97,12,2,15,0.01
2013-7-4,80,70,61,68,63,57,98,80,49,30.12,30.03,5,0,6,0.00
2013-7-5,84,74,66,71,68,65,97,82,57,30.08,30.01,7,1,9,0.00
2013-7-6,78,72,67,72,69,65,97,90,75,30.07,29.96,7,1,8,0.73
2013-7-7,81,73,65,72,68,64,97,87,71,30.04,29.95,10,2,12,0.03
2013-7-8,83,76,70,74,71,66,94,85,70,30.02,29.93,9,2,15,0.03
2013-7-9,87,79,73,79,74,71,96,85,66,29.98,29.86,9,1,11,0.03
2013-7-10,85,75,58,78,69,56,94,83,64,29.94,29.74,14,3,17,0.13
2013-7-11,78,68,56,64,58,54,97,74,48,30.04,29.92,10,2,14,0.00
2013-7-12,80,68,54,65,59,53,98,77,49,30.11,30.03,9,1,13,0.00
2013-7-13,85,72,55,70,64,55,98,79,56,30.16,30.09,10,1,13,0.00
2013-7-14,88,77,64,76,70,63,98,81,59,30.20,30.14,7,1,11,0.00
2013-7-15,91,80,69,80,73,68,98,80,58,30.25,30.18,6,1,8,0.00
2013-7-16,92,81,70,78,73,69,98,79,55,30.29,30.21,7,1,8,0.00
2013-7-17,91,81,70,77,73,69,98,80,54,30.29,30.14,10,1,10,0.00
2013-7-18,92,81,71,79,74,70,98,81,55,30.15,29.95,10,1,11,0.00
2013-7-19,92,84,76,77,74,72,89,74,58,29.96,29.75,18,3,20,0.00
2013-7-20,86,78,68,75,72,66,97,81,55,29.87,29.71,23,2,23,0.97
2013-7-21,86,75,63,72,68,62,98,79,52,29.95,29.84,7,1,9,0.00
2013-7-22,82,73,65,72,67,63,96,84,64,29.88,29.73,15,1,15,0.28
2013-7-23,84,72,60,71,65,55,98,80,59,29.85,29.68,17,2,18,0.00
2013-7-24,74,62,49,60,53,47,96,75,51,30.01,29.85,14,2,14,0.00
2013-7-25,78,64,50,61,56,49,98,78,48,30.09,30.01,7,1,7,0.00
2013-7-26,78,67,53,63,59,52,98,77,55,30.08,29.89,11,1,11,0.01
2013-7-27,77,67,53,66,60,50,93,79,50,29.90,29.75,20,2,20,0.01
2013-7-28,68,59,51,54,51,49,95,78,57,30.00,29.85,18,2,18,0.00
2013-7-29,74,61,48,62,54,47,97,80,58,30.17,30.00,11,1,11,0.00
2013-7-30,80,66,50,64,58,50,98,78,50,30.21,30.08,7,1,8,0.00
2013-7-31,72,68,63,68,65,61,96,91,83,30.08,29.90,8,1,8,0.07
2013-8-1,79,69,56,68,61,54,97,79,46,29.94,29.89,15,2,17,0.01
2013-8-2,77,62,52,70,60,51,98,94,78,29.99,29.83,20,1,20,3.09
2013-8-3,79,69,56,67,61,53,98,80,50,30.03,29.90,14,2,14,0.01
2013-8-4,75,63,50,60,55,49,97,78,50,30.16,30.03,13,2,13,0.00
2013-8-5,77,65,51,65,58,50,98,80,54,30.10,29.92,9,1,9,0.00
2013-8-6,79,70,63,70,65,60,96,84,72,29.94,29.86,10,1,11,0.02
2013-8-7,84,75,66,74,70,65,97,88,68,29.88,29.79,12,1,12,0.00
2013-8-8,76,71,66,70,67,64,97,89,78,29.95,29.86,12,1,12,0.00
2013-8-9,81,72,63,68,64,60,96,78,55,30.00,29.91,9,1,9,0.00
2013-8-10,81,71,62,71,66,61,98,84,63,30.07,29.99,11,1,11,0.00
2013-8-11,81,69,57,67,62,56,98,80,54,30.09,30.01,11,1,11,0.00
2013-8-12,84,72,60,71,65,59,97,80,59,30.05,29.81,10,1,10,0.08
2013-8-13,69,63,53,65,56,49,97,79,53,30.07,29.83,18,3,18,0.01
2013-8-14,72,57,44,56,50,43,97,78,49,30.18,30.06,14,1,14,0.01
2013-8-15,75,60,44,61,52,44,98,79,44,30.18,30.09,8,1,8,0.00
2013-8-16,79,64,52,63,56,51,97,78,43,30.17,30.11,7,0,7,0.00
2013-8-17,80,64,50,61,56,49,98,78,47,30.23,30.15,9,0,9,0.00
2013-8-18,83,67,53,66,59,52,98,78,44,30.18,30.07,9,1,9,0.00
2013-8-19,83,69,54,67,61,54,98,78,49,30.11,30.02,8,1,8,0.00
2013-8-20,86,71,57,70,63,56,98,79,51,30.14,30.05,8,1,8,0.00
2013-8-21,85,72,63,71,67,62,97,84,58,30.13,29.98,9,1,9,0.00
2013-8-22,79,72,66,72,68,65,97,90,77,30.05,29.95,17,1,17,0.11
2013-8-23,82,71,56,67,61,54,97,74,40,30.15,30.02,12,2,12,0.00
2013-8-24,84,66,50,64,56,49,98,75,38,30.28,30.15,9,1,10,0.00
2013-8-25,86,71,55,67,62,54,98,75,48,30.28,30.16,10,1,10,0.00
2013-8-26,88,75,63,72,67,60,94,77,57,30.19,29.99,15,1,15,0.00
2013-8-27,90,79,70,77,72,68,95,81,63,29.99,29.85,12,2,12,0.00
2013-8-28,86,79,72,76,72,68,92,79,69,29.96,29.80,13,3,13,0.00
2013-8-29,88,75,63,72,68,62,98,81,52,30.03,29.96,10,0,10,0.00
2013-8-30,90,76,62,73,68,61,98,79,55,29.97,29.71,13,1,13,0.00
2013-8-31,85,77,70,75,72,69,96,85,65,29.81,29.70,8,1,8,0.02
2013-9-1,82,73,65,72,69,64,98,90,70,29.77,29.71,9,1,9,0.01
2013-9-2,80,71,58,69,63,53,98,79,51,29.91,29.72,13,3,18,0.00
2013-9-3,76,64,55,59,54,50,93,72,51,30.02,29.91,14,2,15,0.00
2013-9-4,80,64,49,61,56,48,98,78,47,30.11,30.01,13,1,13,0.00
2013-9-5,78,63,51,59,50,37,98,68,25,30.22,30.09,12,1,12,0.00
2013-9-6,82,61,44,57,50,43,98,72,35,30.26,30.06,7,1,7,0.00
2013-9-7,87,71,55,68,61,52,93,73,49,30.06,29.88,11,1,12,0.00
2013-9-8,78,69,60,68,64,58,98,85,67,30.01,29.90,12,1,12,0.00
2013-9-9,91,74,61,72,64,53,88,72,52,30.01,29.85,14,2,14,0.00
2013-9-10,96,84,74,73,70,65,91,65,37,30.01,29.89,14,2,14,0.00
2013-9-11,94,81,70,72,69,66,95,70,40,30.03,29.90,16,2,16,0.05
2013-9-12,82,70,59,69,64,54,96,81,39,29.95,29.80,12,2,14,0.54
2013-9-13,62,54,44,55,46,41,94,75,52,30.12,29.95,20,4,20,0.00
2013-9-14,71,51,35,49,40,34,98,73,30,30.21,30.09,9,1,9,0.00
2013-9-15,70,55,41,56,48,40,97,82,48,30.12,29.99,7,1,11,0.25
2013-9-16,68,58,47,55,52,45,96,82,52,30.32,30.10,10,1,10,0.00
2013-9-17,71,55,40,53,47,39,97,79,45,30.36,30.18,12,1,12,0.01
2013-9-18,82,64,51,59,53,48,94,73,37,30.19,29.99,9,1,9,0.00
2013-9-19,76,69,64,69,66,56,96,91,71,30.01,29.87,8,1,9,0.65
2013-9-20,80,72,66,71,68,64,96,89,71,29.89,29.73,13,2,14,0.20
2013-9-21,69,60,46,65,53,44,96,79,49,29.88,29.70,19,3,19,0.00
2013-9-22,64,54,43,50,46,41,97,77,50,30.05,29.87,15,2,15,0.00
2013-9-23,67,51,37,52,44,36,98,79,50,30.15,30.04,9,1,9,0.00
2013-9-24,71,54,39,51,46,38,98,77,46,30.12,29.95,11,1,11,0.01
2013-9-25,71,57,44,56,50,43,98,81,52,29.98,29.90,11,1,11,0.00
2013-9-26,80,59,44,59,49,42,99,73,30,30.10,29.95,12,0,12,0.01
2013-9-27,80,60,41,60,50,40,98,75,39,30.19,30.10,11,1,11,0.00
2013-9-28,81,63,46,60,53,44,98,73,39,30.15,29.98,12,1,12,0.00
2013-9-29,66,61,50,61,57,48,97,87,71,29.99,29.94,10,1,10,0.06
2013-9-30,72,58,50,60,54,49,97,87,57,30.01,29.91,12,1,12,0.01
2013-10-1,73,63,53,63,60,52,98,90,69,30.02,29.94,11,2,12,0.01
2013-10-2,81,69,61,68,64,59,97,84,62,30.07,29.96,8,1,8,0.00
2013-10-3,79,68,60,71,65,59,98,89,69,30.01,29.89,9,1,9,0.19
2013-10-4,83,71,65,71,67,62,97,88,65,30.00,29.92,18,2,18,1.17
2013-10-5,78,69,62,71,67,61,98,92,78,29.99,29.82,10,1,10,0.45
2013-10-6,70,61,49,68,59,42,96,91,74,29.83,29.67,17,3,18,0.69
2013-10-7,60,50,42,49,44,40,96,82,64,30.13,29.74,16,2,16,0.00
2013-10-8,72,53,39,53,46,38,99,79,45,30.26,30.13,10,1,10,0.00
2013-10-9,73,54,39,53,45,38,98,77,39,30.28,30.17,10,0,10,0.01
2013-10-10,74,53,39,55,45,38,98,77,35,30.20,30.09,7,0,7,0.00
2013-10-11,78,56,39,58,48,38,99,79,39,30.13,30.02,7,0,7,0.00
2013-10-12,80,61,46,59,53,45,98,78,41,30.08,29.99,11,1,11,0.01
2013-10-13,68,58,45,61,47,40,96,70,40,30.34,30.08,12,2,12,0.00
2013-10-14,66,51,38,52,44,37,97,80,49,30.39,30.22,10,1,10,0.00
2013-10-15,65,55,44,61,52,42,94,90,84,30.22,29.85,13,1,13,0.05
2013-10-16,63,54,48,61,49,44,93,81,66,29.94,29.82,15,2,15,0.00
2013-10-17,50,47,42,48,44,40,95,91,83,29.93,29.81,11,1,11,0.25
2013-10-18,63,48,39,49,42,37,95,80,49,29.96,29.87,16,2,17,0.01
2013-10-19,52,44,39,43,38,34,94,81,52,29.94,29.80,13,1,13,0.30
2013-10-20,61,51,40,45,40,36,85,68,48,29.94,29.85,16,3,16,0.00
2013-10-21,55,49,38,48,42,30,89,77,63,29.92,29.84,16,3,16,0.03
2013-10-22,49,37,30,34,29,23,94,74,38,30.00,29.90,12,1,12,0.06
2013-10-23,45,37,31,38,33,28,96,85,59,30.01,29.83,12,1,13,0.02
2013-10-24,43,37,32,34,32,29,90,82,65,30.25,29.99,13,2,13,0.01
2013-10-25,48,38,29,36,29,26,91,72,43,30.40,30.17,13,2,17,0.00
2013-10-26,54,43,35,39,32,28,92,66,54,30.17,29.84,20,4,20,0.00
2013-10-27,54,41,29,38,32,27,96,74,40,30.09,30.01,13,1,14,0.00
2013-10-28,58,41,27,41,34,26,96,78,48,30.36,30.07,8,0,8,0.00
2013-10-29,56,43,31,43,37,29,94,81,61,30.41,30.21,12,1,12,0.00
2013-10-30,63,51,38,60,47,36,96,87,74,30.21,29.91,16,1,16,0.03
2013-10-31,64,61,57,62,59,54,96,94,91,29.91,29.19,21,5,23,1.42
2013-11-1,57,48,46,54,44,41,94,84,75,29.69,29.24,27,4,27,0.07
2013-11-2,50,45,40,44,41,36,93,86,69,30.07,29.68,17,2,17,0.01
2013-11-3,49,42,37,40,37,34,93,83,66,30.39,30.07,9,1,9,0.02
2013-11-4,52,44,34,42,36,32,93,75,52,30.40,30.27,15,2,15,0.00
2013-11-5,56,52,48,49,45,41,88,77,64,30.35,30.13,17,2,17,0.00
2013-11-6,57,52,42,52,47,39,94,82,62,30.13,29.82,18,5,18,0.18
2013-11-7,47,40,32,39,32,25,90,74,44,30.22,30.02,15,2,16,0.00
2013-11-8,47,38,28,33,30,26,94,76,50,30.34,30.16,12,1,12,0.00
2013-11-9,60,50,42,42,37,30,71,60,49,30.16,29.89,26,5,26,0.00
2013-11-10,48,41,29,39,31,27,93,70,56,30.31,29.99,15,3,19,0.00
2013-11-11,48,39,28,39,33,21,94,79,62,30.36,30.06,18,4,18,0.11
2013-11-12,34,27,20,25,21,17,90,77,63,30.61,30.36,15,3,15,0.00
2013-11-13,37,28,19,21,19,16,88,69,46,30.60,30.28,18,3,18,0.00
2013-11-14,53,40,30,26,22,20,73,51,28,30.28,30.04,19,5,20,0.00
2013-11-15,52,44,40,32,28,24,74,53,44,30.08,30.00,12,3,12,0.00
2013-11-16,58,49,39,55,45,32,92,87,74,30.06,29.76,18,4,18,0.07
2013-11-17,64,58,48,60,54,40,94,87,71,29.77,29.28,38,7,38,0.42
2013-11-18,47,40,35,41,33,27,86,76,68,30.18,29.64,19,4,20,0.00
2013-11-19,43,35,27,29,26,24,90,71,51,30.38,30.18,13,2,14,0.00
2013-11-20,44,34,24,35,28,22,92,79,62,30.39,30.20,13,1,13,0.00
2013-11-21,48,44,41,47,41,34,96,88,71,30.27,30.16,13,2,13,0.62
2013-11-22,48,41,26,47,38,24,96,88,73,30.41,30.14,17,3,18,0.03
2013-11-23,31,24,15,26,19,9,94,81,63,30.61,30.34,18,4,24,0.00
2013-11-24,25,19,12,18,13,9,90,78,67,30.69,30.49,11,1,11,0.00
2013-11-25,31,26,18,25,17,10,83,69,57,30.50,30.15,17,3,17,0.00
2013-11-26,38,31,27,29,26,21,88,80,67,30.17,29.97,19,3,19,0.00
2013-11-27,31,26,22,23,19,15,87,75,57,30.26,29.98,20,4,20,0.00
2013-11-28,30,25,19,21,17,14,86,71,57,30.46,30.25,14,1,14,0.00
2013-11-29,37,28,20,24,21,16,90,74,52,30.66,30.46,8,1,8,0.00
2013-11-30,50,36,27,32,26,21,80,68,49,30.54,30.12,14,2,14,0.00
2013-12-1,47,38,27,37,31,24,92,74,64,30.12,29.99,10,1,10,0.00
2013-12-2,37,32,23,32,29,21,95,89,79,29.99,29.85,9,0,9,0.00
2013-12-3,48,40,33,45,38,31,95,93,88,29.87,29.78,10,1,11,0.13
2013-12-4,60,50,41,56,48,40,96,94,89,29.84,29.62,16,2,16,0.11
2013-12-5,60,38,28,56,33,22,91,81,73,30.18,29.63,20,4,20,0.00
2013-12-6,29,27,23,23,20,16,80,76,72,30.44,30.14,13,4,14,0.00
2013-12-7,26,20,12,17,14,9,91,74,59,30.65,30.44,9,2,14,0.00
2013-12-8,26,21,13,25,17,10,94,83,71,30.59,30.00,14,2,14,0.00
2013-12-9,28,24,17,26,19,8,94,81,69,30.21,29.94,20,4,20,0.00
2013-12-10,25,16,6,13,7,0,79,67,52,30.31,30.06,22,4,23,0.00
2013-12-11,25,17,8,19,12,4,88,80,65,30.52,30.31,16,2,16,0.00
2013-12-12,22,10,-3,10,2,-8,86,71,52,30.54,30.30,16,2,16,0.00
2013-12-13,31,22,11,23,14,6,90,72,60,30.31,30.18,8,1,10,0.00
2013-12-14,26,24,19,24,22,17,93,92,88,30.21,29.82,16,3,16,0.00
2013-12-15,24,17,9,22,13,5,91,83,75,30.13,29.90,18,3,18,0.00
2013-12-16,22,15,7,15,11,4,91,82,67,30.20,30.03,9,1,9,0.00
2013-12-17,27,22,17,24,19,15,92,90,85,30.09,29.98,15,2,15,0.00
2013-12-18,36,22,16,22,16,13,91,77,58,30.24,29.94,16,3,20,0.00
2013-12-19,45,39,32,38,32,22,88,77,58,30.00,29.87,16,2,20,0.17
2013-12-20,55,47,42,54,46,38,98,95,85,29.87,29.70,12,2,13,0.51
2013-12-21,53,37,34,51,36,32,96,95,91,29.82,29.52,17,2,17,1.80
2013-12-22,38,35,32,37,33,30,97,94,89,30.02,29.46,19,3,19,0.20
2013-12-23,32,26,13,30,21,7,94,83,74,30.40,30.03,15,3,15,0.00
2013-12-24,17,10,4,11,5,-1,91,83,77,30.58,30.39,13,2,13,0.00
2013-12-25,26,22,11,24,18,9,92,84,76,30.52,30.14,14,3,14,0.00
2013-12-26,32,26,21,26,21,16,94,80,64,30.32,30.10,15,3,16,0.00
2013-12-27,43,36,28,33,29,24,88,78,67,30.35,30.15,18,3,18,0.00
2013-12-28,50,41,35,37,33,30,85,74,60,30.16,29.91,16,4,17,0.00
2013-12-29,44,36,24,34,29,19,91,77,68,30.05,29.73,20,4,20,0.00
2013-12-30,24,21,17,20,14,11,86,75,60,30.27,30.05,14,2,14,0.00
2013-12-31,17,15,12,14,10,7,87,80,67,30.38,30.15,16,3,16,0.00
2014-1-1,20,17,14,16,14,11,89,87,81,30.35,30.16,13,2,13,0.00
2014-1-2,16,13,0,13,8,-6,89,81,68,30.36,30.05,23,6,23,0.00